| time (UTC) | temp F | wind direction | speed MPH | gust MPH | rain 1hr in | rain 24hr in | rain mn in | humidity % | barometer mb |
| 20260905175020 | 79 | 0.0 | 1.0 | 0.04 | 0.04 | 0.04 | 93 | 1016.6 | |
| 20260905174520 | 79 | 0.0 | 0.0 | 0.04 | 0.04 | 0.04 | 92 | 1016.5 | |
| 20260905174023 | 79 | 0.0 | 0.0 | 0.04 | 0.04 | 0.04 | 92 | 1016.3 | |
| 20260905173520 | 79 | 0.0 | 0.0 | 0.04 | 0.04 | 0.04 | 91 | 1016.6 | |
| 20260905173020 | 80 | 0.0 | 0.0 | 0.04 | 0.04 | 0.04 | 88 | 1016.5 | |
| 20260905172522 | 81 | 0.0 | 0.0 | 0.04 | 0.04 | 0.04 | 87 | 1017.0 | |
| 20260905172021 | 82 | 0.0 | 0.0 | 0.03 | 0.03 | 0.03 | 83 | 1016.9 | |
| 20260905171522 | 85 | 0.0 | 1.0 | 0.01 | 0.01 | 0.01 | 76 | 1017.1 | |
| 20260905171021 | 87 | 0.0 | 1.0 | 0.00 | 0.00 | 0.00 | 74 | 1016.8 | |
| 20260905170516 | 88 | 0.0 | 1.0 | 0.00 | 0.00 | 0.00 | 74 | 1016.9 | |
| 20260905170018 | 89 | 0.0 | 1.0 | 0.00 | 0.00 | 0.00 | 73 | 1016.8 | |
| 20260905165517 | 89 | 0.0 | 0.0 | 0.00 | 0.00 | 0.00 | 71 | 1016.9 | |
| 20260905165017 | 90 | 338 | 1.0 | 1.0 | 0.00 | 0.00 | 0.00 | 70 | 1017.1 |
| 20260905164521 | 91 | 0.0 | 2.0 | 0.00 | 0.00 | 0.00 | 69 | 1017.2 | |
| 20260905164017 | 92 | 90 | 2.0 | 2.0 | 0.00 | 0.00 | 0.00 | 67 | 1017.2 |
| 20260905163520 | 92 | 0.0 | 1.0 | 0.00 | 0.00 | 0.00 | 65 | 1017.5 | |
| 20260905163017 | 92 | 68 | 1.0 | 2.0 | 0.00 | 0.00 | 0.00 | 66 | 1017.1 |
| 20260905162520 | 91 | 0.0 | 1.0 | 0.00 | 0.00 | 0.00 | 67 | 1017.0 | |
| 20260905162019 | 91 | 90 | 1.0 | 3.0 | 0.00 | 0.00 | 0.00 | 69 | 1017.1 |
| 20260905161518 | 90 | 270 | 1.0 | 2.0 | 0.00 | 0.00 | 0.00 | 71 | 1017.0 |
| 20260905161020 | 90 | 248 | 2.0 | 4.0 | 0.00 | 0.00 | 0.00 | 69 | 1017.0 |
| 20260905160518 | 90 | 0.0 | 0.0 | 0.00 | 0.00 | 0.00 | 71 | 1017.1 | |
| 20260905160019 | 89 | 225 | 1.0 | 2.0 | 0.00 | 0.00 | 0.00 | 73 | 1017.2 |
| 20260905155519 | 88 | 270 | 1.0 | 2.0 | 0.00 | 0.00 | 0.00 | 74 | 1017.2 |
| 20260905155019 | 88 | 225 | 1.0 | 2.0 | 0.00 | 0.00 | 0.00 | 76 | 1017.0 |
| 20260905154520 | 88 | 270 | 1.0 | 2.0 | 0.00 | 0.00 | 0.00 | 76 | 1017.1 |
| 20260905154019 | 87 | 225 | 1.0 | 2.0 | 0.00 | 0.00 | 0.00 | 77 | 1017.1 |
| 20260905153519 | 86 | 0.0 | 0.0 | 0.00 | 0.00 | 0.00 | 78 | 1017.2 | |
| 20260905153017 | 85 | 0.0 | 0.0 | 0.00 | 0.00 | 0.00 | 79 | 1017.1 | |
| 20260905152521 | 85 | 180 | 1.0 | 1.0 | 0.00 | 0.00 | 0.00 | 79 | 1017.2 |
| 20260905152022 | 85 | 0.0 | 1.0 | 0.00 | 0.00 | 0.00 | 80 | 1017.2 | |
| 20260905151520 | 84 | 0.0 | 0.0 | 0.00 | 0.00 | 0.00 | 80 | 1017.1 | |
| 20260905151017 | 84 | 0.0 | 1.0 | 0.00 | 0.00 | 0.00 | 80 | 1017.2 | |
| 20260905150516 | 84 | 0.0 | 0.0 | 0.00 | 0.00 | 0.00 | 81 | 1017.3 | |
| 20260905150017 | 84 | 0.0 | 0.0 | 0.00 | 0.00 | 0.00 | 82 | 1017.3 | |
| 20260905145519 | 84 | 293 | 1.0 | 2.0 | 0.00 | 0.00 | 0.00 | 82 | 1017.3 |
| 20260905145019 | 83 | 0.0 | 1.0 | 0.00 | 0.00 | 0.00 | 82 | 1017.3 | |
| 20260905144519 | 83 | 203 | 1.0 | 1.0 | 0.00 | 0.00 | 0.00 | 83 | 1017.5 |
| 20260905144020 | 82 | 270 | 1.0 | 1.0 | 0.00 | 0.00 | 0.00 | 83 | 1017.4 |
| 20260905143517 | 82 | 315 | 1.0 | 2.0 | 0.00 | 0.00 | 0.00 | 83 | 1017.4 |
| 20260905143022 | 82 | 338 | 1.0 | 2.0 | 0.00 | 0.00 | 0.00 | 83 | 1017.4 |
| 20260905142522 | 82 | 0.0 | 1.0 | 0.00 | 0.00 | 0.00 | 84 | 1017.4 | |
| 20260905142019 | 82 | 0.0 | 0.0 | 0.00 | 0.00 | 0.00 | 84 | 1017.5 | |
| 20260905141519 | 81 | 0.0 | 1.0 | 0.00 | 0.00 | 0.00 | 85 | 1017.6 | |
| 20260905141019 | 81 | 0.0 | 0.0 | 0.00 | 0.00 | 0.00 | 86 | 1017.6 | |
| 20260905140519 | 81 | 0.0 | 0.0 | 0.00 | 0.00 | 0.00 | 86 | 1017.6 | |
| 20260905140019 | 81 | 0.0 | 1.0 | 0.00 | 0.00 | 0.00 | 85 | 1017.5 | |
| 20260905135516 | 81 | 0.0 | 1.0 | 0.00 | 0.00 | 0.00 | 86 | 1017.6 | |
| 20260905135018 | 81 | 0.0 | 1.0 | 0.00 | 0.00 | 0.00 | 85 | 1017.6 | |
| 20260905134520 | 81 | 0.0 | 0.0 | 0.00 | 0.00 | 0.00 | 87 | 1017.7 | |
| 20260905134020 | 80 | 0.0 | 1.0 | 0.00 | 0.00 | 0.00 | 87 | 1017.5 | |
| 20260905133521 | 80 | 0.0 | 1.0 | 0.00 | 0.00 | 0.00 | 87 | 1017.5 | |
| 20260905133019 | 80 | 0.0 | 1.0 | 0.00 | 0.00 | 0.00 | 89 | 1017.5 | |
| 20260905132517 | 79 | 0.0 | 1.0 | 0.00 | 0.00 | 0.00 | 90 | 1017.6 | |
| 20260905132017 | 79 | 0.0 | 0.0 | 0.00 | 0.00 | 0.00 | 90 | 1017.7 | |
| 20260905131521 | 79 | 0.0 | 1.0 | 0.00 | 0.00 | 0.00 | 90 | 1017.7 | |
| 20260905131016 | 78 | 0.0 | 0.0 | 0.00 | 0.00 | 0.00 | 90 | 1017.8 | |
| 20260905130521 | 78 | 0.0 | 0.0 | 0.00 | 0.00 | 0.00 | 91 | 1017.8 | |
| 20260905130019 | 78 | 0.0 | 0.0 | 0.00 | 0.00 | 0.00 | 92 | 1017.9 | |
| 20260905125520 | 77 | 0.0 | 0.0 | 0.00 | 0.00 | 0.00 | 92 | 1017.9 | |
| 20260905125016 | 77 | 0.0 | 0.0 | 0.00 | 0.00 | 0.00 | 94 | 1017.8 | |
| 20260905124520 | 76 | 0.0 | 0.0 | 0.00 | 0.00 | 0.00 | 94 | 1017.8 | |
| 20260905124018 | 76 | 0.0 | 0.0 | 0.00 | 0.00 | 0.00 | 95 | 1017.8 | |
| 20260905123517 | 75 | 0.0 | 0.0 | 0.00 | 0.00 | 0.00 | 96 | 1017.9 | |
| 20260905123020 | 75 | 0.0 | 0.0 | 0.00 | 0.00 | 0.00 | 96 | 1017.8 | |
| 20260905122517 | 75 | 0.0 | 0.0 | 0.00 | 0.00 | 0.00 | 97 | 1017.7 | |
| 20260905122018 | 74 | 0.0 | 0.0 | 0.00 | 0.00 | 0.00 | 96 | 1017.5 | |
| 20260905121517 | 74 | 0.0 | 0.0 | 0.00 | 0.00 | 0.00 | 96 | 1017.5 | |
| 20260905121018 | 74 | 0.0 | 0.0 | 0.00 | 0.00 | 0.00 | 96 | 1017.4 | |
| 20260905120517 | 74 | 0.0 | 0.0 | 0.00 | 0.00 | 0.00 | 97 | 1017.4 | |
| 20260905120021 | 73 | 0.0 | 0.0 | 0.00 | 0.00 | 0.00 | 96 | 1017.2 | |
| 20260905115520 | 73 | 0.0 | 0.0 | 0.00 | 0.00 | 0.00 | 96 | 1017.1 | |
| 20260905115019 | 73 | 0.0 | 0.0 | 0.00 | 0.00 | 0.00 | 96 | 1017.1 | |
| 20260905114520 | 73 | 0.0 | 0.0 | 0.00 | 0.00 | 0.00 | 96 | 1017.1 | |
| 20260905114019 | 73 | 0.0 | 0.0 | 0.00 | 0.00 | 0.00 | 96 | 1017.0 | |
| 20260905113518 | 73 | 0.0 | 0.0 | 0.00 | 0.00 | 0.00 | 96 | 1017.0 | |
| 20260905113019 | 73 | 0.0 | 0.0 | 0.00 | 0.00 | 0.00 | 96 | 1017.0 | |
| 20260905112521 | 73 | 0.0 | 0.0 | 0.00 | 0.00 | 0.00 | 96 | 1016.9 | |
| 20260905112020 | 73 | 0.0 | 0.0 | 0.00 | 0.00 | 0.00 | 96 | 1016.8 | |
| 20260905111520 | 73 | 0.0 | 0.0 | 0.00 | 0.00 | 0.00 | 96 | 1016.8 | |
| 20260905111020 | 73 | 0.0 | 0.0 | 0.00 | 0.00 | 0.00 | 96 | 1016.9 | |
| 20260905110521 | 73 | 0.0 | 0.0 | 0.00 | 0.00 | 0.00 | 96 | 1016.8 | |
| 20260905110017 | 73 | 0.0 | 0.0 | 0.00 | 0.00 | 0.00 | 96 | 1016.8 | |
| 20260905105521 | 73 | 0.0 | 0.0 | 0.00 | 0.00 | 0.00 | 96 | 1016.9 | |
| 20260905105017 | 73 | 0.0 | 0.0 | 0.00 | 0.00 | 0.00 | 96 | 1016.8 | |
| 20260905104516 | 73 | 0.0 | 0.0 | 0.00 | 0.00 | 0.00 | 96 | 1016.8 | |
| 20260905104018 | 73 | 0.0 | 0.0 | 0.00 | 0.00 | 0.00 | 96 | 1016.8 | |
| 20260905103519 | 73 | 0.0 | 0.0 | 0.00 | 0.00 | 0.00 | 96 | 1016.6 | |
| 20260905103019 | 73 | 0.0 | 0.0 | 0.00 | 0.00 | 0.00 | 95 | 1016.5 | |
| 20260905102517 | 73 | 0.0 | 0.0 | 0.00 | 0.00 | 0.00 | 95 | 1016.4 | |
| 20260905102019 | 73 | 0.0 | 0.0 | 0.00 | 0.00 | 0.00 | 95 | 1016.4 | |
| 20260905101518 | 73 | 0.0 | 0.0 | 0.00 | 0.00 | 0.00 | 95 | 1016.4 | |
| 20260905101020 | 73 | 0.0 | 0.0 | 0.00 | 0.00 | 0.00 | 95 | 1016.3 | |
| 20260905100517 | 73 | 0.0 | 0.0 | 0.00 | 0.00 | 0.00 | 94 | 1016.2 | |
| 20260905100019 | 73 | 0.0 | 0.0 | 0.00 | 0.00 | 0.00 | 94 | 1016.2 | |
| 20260905095517 | 73 | 0.0 | 0.0 | 0.00 | 0.00 | 0.00 | 94 | 1016.2 | |
| 20260905095019 | 74 | 0.0 | 0.0 | 0.00 | 0.00 | 0.00 | 94 | 1016.2 | |
| 20260905094521 | 74 | 0.0 | 0.0 | 0.00 | 0.00 | 0.00 | 94 | 1016.2 | |
| 20260905094020 | 74 | 0.0 | 0.0 | 0.00 | 0.00 | 0.00 | 94 | 1016.1 | |
| 20260905093518 | 74 | 0.0 | 0.0 | 0.00 | 0.00 | 0.00 | 94 | 1016.1 | |
| 20260905093023 | 74 | 0.0 | 0.0 | 0.00 | 0.00 | 0.00 | 93 | 1015.9 | |
| 20260905092519 | 74 | 0.0 | 0.0 | 0.00 | 0.00 | 0.00 | 93 | 1016.0 | |
| 20260905092016 | 74 | 0.0 | 0.0 | 0.00 | 0.00 | 0.00 | 93 | 1015.9 | |
| 20260905091517 | 74 | 0.0 | 0.0 | 0.00 | 0.00 | 0.00 | 93 | 1015.9 | |
| 20260905091020 | 74 | 0.0 | 0.0 | 0.00 | 0.00 | 0.00 | 93 | 1016.0 | |
| 20260905090519 | 74 | 0.0 | 0.0 | 0.00 | 0.00 | 0.00 | 93 | 1016.0 | |
| 20260905090021 | 74 | 0.0 | 0.0 | 0.00 | 0.00 | 0.00 | 92 | 1016.1 | |
| 20260905085521 | 74 | 0.0 | 0.0 | 0.00 | 0.00 | 0.00 | 92 | 1016.1 | |
| 20260905085018 | 75 | 0.0 | 0.0 | 0.00 | 0.00 | 0.00 | 92 | 1016.3 | |
| 20260905084516 | 75 | 0.0 | 0.0 | 0.00 | 0.00 | 0.00 | 92 | 1016.4 | |
| 20260905084020 | 75 | 0.0 | 0.0 | 0.00 | 0.00 | 0.00 | 92 | 1016.4 | |
| 20260905083518 | 75 | 0.0 | 0.0 | 0.00 | 0.00 | 0.00 | 92 | 1016.6 | |
| 20260905083016 | 75 | 0.0 | 0.0 | 0.00 | 0.00 | 0.00 | 91 | 1016.5 | |
| 20260905082516 | 75 | 0.0 | 0.0 | 0.00 | 0.00 | 0.00 | 91 | 1016.5 | |
| 20260905082019 | 75 | 0.0 | 0.0 | 0.00 | 0.00 | 0.00 | 91 | 1016.6 | |
| 20260905081517 | 75 | 0.0 | 0.0 | 0.00 | 0.00 | 0.00 | 91 | 1016.6 | |
| 20260905081021 | 75 | 0.0 | 0.0 | 0.00 | 0.00 | 0.00 | 91 | 1016.6 | |
| 20260905080520 | 75 | 0.0 | 0.0 | 0.00 | 0.00 | 0.00 | 90 | 1016.6 | |
| 20260905080020 | 75 | 0.0 | 0.0 | 0.00 | 0.00 | 0.00 | 90 | 1016.6 | |
| 20260905075518 | 75 | 0.0 | 0.0 | 0.00 | 0.00 | 0.00 | 90 | 1016.7 | |
| 20260905075019 | 75 | 0.0 | 0.0 | 0.00 | 0.00 | 0.00 | 90 | 1016.7 | |
| 20260905074517 | 75 | 0.0 | 0.0 | 0.00 | 0.00 | 0.00 | 90 | 1016.8 | |
| 20260905074018 | 75 | 0.0 | 0.0 | 0.00 | 0.00 | 0.00 | 90 | 1016.7 | |
| 20260905073516 | 75 | 0.0 | 0.0 | 0.00 | 0.00 | 0.00 | 90 | 1016.8 | |
| 20260905073017 | 75 | 0.0 | 0.0 | 0.00 | 0.00 | 0.00 | 90 | 1016.9 | |
| 20260905072516 | 76 | 0.0 | 0.0 | 0.00 | 0.00 | 0.00 | 90 | 1016.9 | |
| 20260905072020 | 75 | 0.0 | 0.0 | 0.00 | 0.00 | 0.00 | 91 | 1016.9 | |
| 20260905071516 | 75 | 0.0 | 0.0 | 0.00 | 0.00 | 0.00 | 90 | 1016.9 | |
| 20260905071017 | 75 | 0.0 | 0.0 | 0.00 | 0.00 | 0.00 | 90 | 1016.9 | |
| 20260905070517 | 75 | 0.0 | 0.0 | 0.00 | 0.00 | 0.00 | 90 | 1016.9 | |
| 20260905070020 | 76 | 0.0 | 0.0 | 0.00 | 0.00 | 0.00 | 90 | 1016.9 | |
| 20260905065518 | 76 | 0.0 | 0.0 | 0.00 | 0.00 | 0.00 | 90 | 1017.1 | |
| 20260905065020 | 76 | 0.0 | 0.0 | 0.00 | 0.00 | 0.00 | 89 | 1017.0 | |
| 20260905064520 | 76 | 0.0 | 0.0 | 0.00 | 0.00 | 0.00 | 89 | 1016.8 | |
| 20260905064016 | 76 | 0.0 | 0.0 | 0.00 | 0.00 | 0.00 | 89 | 1017.0 | |
| 20260905063516 | 76 | 0.0 | 0.0 | 0.00 | 0.00 | 0.00 | 89 | 1017.1 | |
| 20260905063017 | 76 | 0.0 | 0.0 | 0.00 | 0.00 | 0.00 | 89 | 1017.0 | |
| 20260905062516 | 76 | 0.0 | 0.0 | 0.00 | 0.00 | 0.00 | 88 | 1017.0 | |
| 20260905062020 | 76 | 0.0 | 0.0 | 0.00 | 0.00 | 0.00 | 88 | 1017.2 | |
| 20260905061519 | 77 | 0.0 | 0.0 | 0.00 | 0.00 | 0.00 | 88 | 1017.3 | |
| 20260905061020 | 77 | 0.0 | 0.0 | 0.00 | 0.00 | 0.00 | 87 | 1017.4 | |
| 20260905060520 | 77 | 0.0 | 0.0 | 0.00 | 0.00 | 0.00 | 87 | 1017.2 | |
| 20260905060017 | 77 | 0.0 | 0.0 | 0.00 | 0.00 | 0.00 | 87 | 1017.3 | |
| 20260905055517 | 77 | 0.0 | 0.0 | 0.00 | 0.00 | 0.00 | 87 | 1017.3 | |
| 20260905055016 | 77 | 0.0 | 0.0 | 0.00 | 0.00 | 0.00 | 87 | 1017.3 | |
| 20260905054518 | 77 | 0.0 | 0.0 | 0.00 | 0.00 | 0.00 | 87 | 1017.2 | |
| 20260905054018 | 77 | 0.0 | 0.0 | 0.00 | 0.00 | 0.00 | 86 | 1017.2 | |
| 20260905053522 | 77 | 0.0 | 0.0 | 0.00 | 0.00 | 0.00 | 86 | 1017.2 | |
| 20260905053021 | 78 | 0.0 | 0.0 | 0.00 | 0.00 | 0.00 | 86 | 1017.1 | |
| 20260905052518 | 78 | 0.0 | 0.0 | 0.00 | 0.00 | 0.00 | 86 | 1017.3 | |
| 20260905052021 | 78 | 0.0 | 1.0 | 0.00 | 0.00 | 0.00 | 87 | 1017.2 | |
| 20260905051524 | 77 | 0.0 | 0.0 | 0.00 | 0.00 | 0.00 | 88 | 1017.1 | |
| 20260905051017 | 78 | 0.0 | 0.0 | 0.00 | 0.00 | 0.00 | 88 | 1017.1 | |
| 20260905050520 | 78 | 0.0 | 0.0 | 0.00 | 0.00 | 0.00 | 89 | 1017.2 | |
| 20260905050017 | 78 | 0.0 | 0.0 | 0.00 | 0.00 | 0.00 | 89 | 1017.1 | |
| 20260905045521 | 78 | 0.0 | 0.0 | 0.00 | 0.00 | 0.00 | 89 | 1017.1 | |
| 20260905045020 | 78 | 0.0 | 0.0 | 0.00 | 0.00 | 0.00 | 88 | 1017.0 | |
| 20260905044518 | 78 | 0.0 | 0.0 | 0.00 | 0.00 | 0.00 | 88 | 1017.1 | |
| 20260905044020 | 78 | 0.0 | 0.0 | 0.00 | 0.00 | 0.00 | 88 | 1017.2 | |
| 20260905043523 | 78 | 0.0 | 0.0 | 0.00 | 0.00 | 0.00 | 88 | 1017.1 | |
| 20260905043021 | 78 | 0.0 | 0.0 | 0.00 | 0.00 | 0.00 | 87 | 1017.1 | |
| 20260905042524 | 79 | 0.0 | 0.0 | 0.00 | 0.00 | 0.00 | 87 | 1017.1 | |
| 20260905042022 | 79 | 0.0 | 0.0 | 0.00 | 0.00 | 0.00 | 87 | 1017.1 | |
| 20260905041521 | 79 | 0.0 | 0.0 | 0.00 | 0.00 | 0.00 | 87 | 1017.1 | |
| 20260905041022 | 79 | 0.0 | 0.0 | 0.00 | 0.00 | 0.00 | 87 | 1017.0 | |
| 20260905040517 | 79 | 0.0 | 0.0 | 0.00 | 0.00 | 0.00 | 86 | 1016.9 | |
| 20260905040020 | 79 | 0.0 | 0.0 | 0.00 | 0.00 | 0.00 | 86 | 1017.0 | |
| 20260905035521 | 79 | 0.0 | 0.0 | 0.00 | 0.00 | 0.00 | 85 | 1017.1 | |
| 20260905035020 | 80 | 0.0 | 0.0 | 0.00 | 0.00 | 0.00 | 86 | 1017.0 | |
| 20260905034521 | 79 | 0.0 | 0.0 | 0.00 | 0.00 | 0.00 | 86 | 1016.9 | |
| 20260905034023 | 79 | 0.0 | 0.0 | 0.00 | 0.00 | 0.00 | 85 | 1016.7 | |
| 20260905033521 | 79 | 0.0 | 0.0 | 0.00 | 0.00 | 0.00 | 86 | 1016.8 | |
| 20260905033022 | 79 | 0.0 | 0.0 | 0.00 | 0.00 | 0.00 | 86 | 1016.6 | |
| 20260905032523 | 79 | 0.0 | 0.0 | 0.00 | 0.00 | 0.00 | 86 | 1016.7 | |
| 20260905032022 | 80 | 0.0 | 0.0 | 0.00 | 0.00 | 0.00 | 85 | 1016.8 | |
| 20260905031522 | 80 | 0.0 | 0.0 | 0.00 | 0.00 | 0.00 | 85 | 1016.7 | |
| 20260905031016 | 80 | 0.0 | 0.0 | 0.00 | 0.00 | 0.00 | 85 | 1016.7 | |
| 20260905030520 | 80 | 0.0 | 0.0 | 0.00 | 0.00 | 0.00 | 85 | 1016.7 | |
| 20260905030017 | 80 | 0.0 | 0.0 | 0.00 | 0.00 | 0.00 | 84 | 1016.7 | |
| 20260905025519 | 80 | 0.0 | 0.0 | 0.00 | 0.00 | 0.00 | 84 | 1016.7 | |
| 20260905025017 | 80 | 0.0 | 0.0 | 0.00 | 0.00 | 0.00 | 83 | 1016.8 | |
| 20260905024520 | 81 | 0.0 | 0.0 | 0.00 | 0.00 | 0.00 | 83 | 1016.7 | |
| 20260905024019 | 81 | 0.0 | 0.0 | 0.00 | 0.00 | 0.00 | 83 | 1016.8 | |
| 20260905023521 | 81 | 0.0 | 0.0 | 0.00 | 0.00 | 0.00 | 83 | 1016.9 | |
| 20260905023016 | 81 | 0.0 | 0.0 | 0.00 | 0.00 | 0.00 | 83 | 1017.0 | |
| 20260905022517 | 81 | 0.0 | 0.0 | 0.00 | 0.00 | 0.00 | 83 | 1017.2 | |
| 20260905022020 | 81 | 0.0 | 0.0 | 0.00 | 0.00 | 0.00 | 83 | 1017.2 | |
| 20260905021517 | 81 | 0.0 | 0.0 | 0.00 | 0.00 | 0.00 | 83 | 1017.1 | |
| 20260905021020 | 81 | 0.0 | 0.0 | 0.00 | 0.00 | 0.00 | 83 | 1017.1 | |
| 20260905020519 | 81 | 0.0 | 0.0 | 0.00 | 0.00 | 0.00 | 84 | 1017.3 | |
| 20260905020019 | 82 | 0.0 | 0.0 | 0.00 | 0.00 | 0.00 | 84 | 1017.3 | |
| 20260905015517 | 82 | 0.0 | 0.0 | 0.00 | 0.00 | 0.00 | 84 | 1017.2 | |
| 20260905015019 | 82 | 0.0 | 0.0 | 0.00 | 0.00 | 0.00 | 84 | 1017.3 | |
| 20260905014517 | 82 | 0.0 | 0.0 | 0.00 | 0.00 | 0.00 | 83 | 1017.2 | |
| 20260905014019 | 82 | 0.0 | 0.0 | 0.00 | 0.00 | 0.00 | 83 | 1017.0 | |
| 20260905013519 | 82 | 0.0 | 0.0 | 0.00 | 0.00 | 0.00 | 83 | 1017.1 | |
| 20260905013017 | 83 | 0.0 | 0.0 | 0.00 | 0.00 | 0.00 | 83 | 1017.1 | |
| 20260905012521 | 83 | 0.0 | 0.0 | 0.00 | 0.00 | 0.00 | 83 | 1017.2 | |
| 20260905012018 | 83 | 0.0 | 0.0 | 0.00 | 0.00 | 0.00 | 83 | 1017.1 | |
| 20260905011519 | 83 | 0.0 | 0.0 | 0.00 | 0.00 | 0.00 | 82 | 1016.9 | |
| 20260905011019 | 83 | 0.0 | 0.0 | 0.00 | 0.00 | 0.00 | 82 | 1016.8 | |
| 20260905010523 | 83 | 0.0 | 0.0 | 0.00 | 0.00 | 0.00 | 82 | 1016.9 | |
| 20260905010021 | 84 | 0.0 | 0.0 | 0.00 | 0.00 | 0.00 | 81 | 1016.9 | |
| 20260905005520 | 84 | 0.0 | 0.0 | 0.00 | 0.00 | 0.00 | 81 | 1016.9 | |
| 20260905005023 | 84 | 0.0 | 0.0 | 0.00 | 0.00 | 0.00 | 81 | 1016.9 | |
| 20260905004516 | 84 | 0.0 | 0.0 | 0.00 | 0.00 | 0.00 | 81 | 1017.0 | |
| 20260905004023 | 84 | 0.0 | 0.0 | 0.00 | 0.00 | 0.00 | 80 | 1016.9 | |
| 20260905003517 | 85 | 0.0 | 0.0 | 0.00 | 0.00 | 0.00 | 80 | 1017.0 | |
| 20260905003016 | 85 | 0.0 | 0.0 | 0.00 | 0.00 | 0.00 | 79 | 1017.0 | |
| 20260905002517 | 85 | 0.0 | 0.0 | 0.00 | 0.00 | 0.00 | 79 | 1017.1 | |
| 20260905002021 | 85 | 0.0 | 0.0 | 0.00 | 0.00 | 0.00 | 78 | 1017.0 | |
| 20260905001518 | 86 | 0.0 | 0.0 | 0.00 | 0.00 | 0.00 | 78 | 1016.8 | |
| 20260905001020 | 86 | 0.0 | 0.0 | 0.00 | 0.00 | 0.00 | 77 | 1016.7 | |
| 20260905000519 | 86 | 0.0 | 0.0 | 0.00 | 0.00 | 0.00 | 77 | 1016.7 | |
| 20260905000017 | 87 | 0.0 | 0.0 | 0.00 | 0.00 | 0.00 | 76 | 1016.7 | |
| 20260904235520 | 87 | 0.0 | 0.0 | 0.00 | 0.00 | 0.00 | 76 | 1016.8 | |
| 20260904235019 | 87 | 0.0 | 0.0 | 0.00 | 0.00 | 0.00 | 75 | 1016.9 | |
| 20260904234518 | 87 | 0.0 | 0.0 | 0.00 | 0.00 | 0.00 | 75 | 1016.9 | |
| 20260904234019 | 87 | 0.0 | 0.0 | 0.00 | 0.00 | 0.00 | 75 | 1016.9 | |
| 20260904233520 | 88 | 0.0 | 0.0 | 0.00 | 0.00 | 0.00 | 74 | 1016.8 | |
| 20260904233020 | 88 | 0.0 | 0.0 | 0.00 | 0.00 | 0.00 | 74 | 1016.7 | |
| 20260904232520 | 88 | 0.0 | 0.0 | 0.00 | 0.00 | 0.00 | 74 | 1016.7 | |
| 20260904232018 | 88 | 0.0 | 0.0 | 0.00 | 0.00 | 0.00 | 74 | 1016.5 | |
| 20260904231518 | 88 | 0.0 | 0.0 | 0.00 | 0.00 | 0.00 | 74 | 1016.4 | |
| 20260904231019 | 88 | 0.0 | 0.0 | 0.00 | 0.00 | 0.00 | 74 | 1016.4 | |
| 20260904230519 | 89 | 0.0 | 0.0 | 0.00 | 0.00 | 0.00 | 73 | 1016.3 | |
| 20260904230020 | 89 | 0.0 | 0.0 | 0.00 | 0.00 | 0.00 | 73 | 1016.3 | |
| 20260904225520 | 89 | 0.0 | 0.0 | 0.00 | 0.00 | 0.00 | 72 | 1016.1 | |
| 20260904225019 | 89 | 0.0 | 0.0 | 0.00 | 0.00 | 0.00 | 71 | 1016.1 | |
| 20260904224520 | 90 | 0.0 | 0.0 | 0.00 | 0.00 | 0.00 | 71 | 1016.0 | |
| 20260904224021 | 90 | 0.0 | 0.0 | 0.00 | 0.00 | 0.00 | 71 | 1015.8 | |
| 20260904223521 | 91 | 0.0 | 0.0 | 0.00 | 0.00 | 0.00 | 70 | 1015.9 | |
| 20260904223020 | 92 | 0.0 | 0.0 | 0.00 | 0.00 | 0.00 | 68 | 1015.9 | |
| 20260904222517 | 93 | 0.0 | 0.0 | 0.00 | 0.00 | 0.00 | 66 | 1015.8 | |
| 20260904222018 | 93 | 0.0 | 0.0 | 0.00 | 0.00 | 0.00 | 63 | 1015.9 | |
| 20260904221519 | 93 | 0.0 | 0.0 | 0.00 | 0.00 | 0.00 | 64 | 1016.0 | |
| 20260904221019 | 94 | 0.0 | 0.0 | 0.00 | 0.00 | 0.00 | 61 | 1016.2 | |
| 20260904220517 | 93 | 0.0 | 0.0 | 0.00 | 0.00 | 0.00 | 61 | 1016.1 | |
| 20260904220019 | 93 | 0.0 | 0.0 | 0.00 | 0.00 | 0.00 | 66 | 1016.2 | |
| 20260904215520 | 93 | 0.0 | 0.0 | 0.00 | 0.00 | 0.00 | 65 | 1016.1 | |
| 20260904215019 | 93 | 0.0 | 0.0 | 0.00 | 0.00 | 0.00 | 64 | 1016.3 | |
| 20260904214517 | 92 | 0.0 | 0.0 | 0.00 | 0.00 | 0.00 | 64 | 1016.3 | |
| 20260904214020 | 92 | 0.0 | 0.0 | 0.00 | 0.00 | 0.00 | 64 | 1016.3 | |
| 20260904213518 | 93 | 0.0 | 1.0 | 0.00 | 0.00 | 0.00 | 63 | 1016.3 | |
| 20260904213019 | 94 | 0.0 | 1.0 | 0.00 | 0.00 | 0.00 | 61 | 1016.4 | |
| 20260904212520 | 93 | 0.0 | 0.0 | 0.00 | 0.00 | 0.00 | 62 | 1016.3 | |
| 20260904212021 | 93 | 90 | 1.0 | 1.0 | 0.00 | 0.00 | 0.00 | 63 | 1016.4 |
| 20260904211519 | 93 | 0.0 | 1.0 | 0.00 | 0.00 | 0.00 | 63 | 1016.5 | |
| 20260904211018 | 94 | 0.0 | 0.0 | 0.00 | 0.00 | 0.00 | 61 | 1016.4 | |
| 20260904210519 | 95 | 0.0 | 0.0 | 0.00 | 0.00 | 0.00 | 61 | 1016.4 | |
| 20260904210022 | 94 | 0.0 | 0.0 | 0.00 | 0.00 | 0.00 | 65 | 1016.5 | |
| 20260904205516 | 95 | 0.0 | 0.0 | 0.00 | 0.00 | 0.00 | 59 | 1016.5 | |
| 20260904205021 | 95 | 0.0 | 1.0 | 0.00 | 0.00 | 0.00 | 57 | 1016.7 | |
| 20260904204519 | 96 | 0.0 | 1.0 | 0.00 | 0.00 | 0.00 | 57 | 1016.7 | |
| 20260904204024 | 95 | 0.0 | 1.0 | 0.00 | 0.00 | 0.00 | 60 | 1016.7 | |
| 20260904203521 | 96 | 90 | 1.0 | 1.0 | 0.00 | 0.00 | 0.00 | 59 | 1016.8 |
| 20260904203016 | 97 | 68 | 1.0 | 3.0 | 0.00 | 0.00 | 0.00 | 56 | 1016.9 |
| 20260904202520 | 97 | 68 | 2.0 | 3.0 | 0.00 | 0.00 | 0.00 | 55 | 1017.0 |
| 20260904202021 | 96 | 0.0 | 1.0 | 0.00 | 0.00 | 0.00 | 58 | 1017.1 | |
| 20260904201521 | 96 | 0.0 | 1.0 | 0.00 | 0.00 | 0.00 | 57 | 1017.2 | |
| 20260904201020 | 97 | 0.0 | 0.0 | 0.00 | 0.00 | 0.00 | 58 | 1017.3 | |
| 20260904200519 | 96 | 0.0 | 0.0 | 0.00 | 0.00 | 0.00 | 60 | 1017.3 | |
| 20260904200017 | 97 | 68 | 2.0 | 3.0 | 0.00 | 0.00 | 0.00 | 57 | 1017.4 |
| 20260904195516 | 96 | 68 | 1.0 | 1.0 | 0.00 | 0.00 | 0.00 | 58 | 1017.3 |
| 20260904195022 | 96 | 68 | 1.0 | 2.0 | 0.00 | 0.00 | 0.00 | 58 | 1017.5 |
| 20260904194519 | 96 | 68 | 2.0 | 2.0 | 0.00 | 0.00 | 0.00 | 58 | 1017.6 |
| 20260904194020 | 95 | 315 | 1.0 | 1.0 | 0.00 | 0.00 | 0.00 | 59 | 1017.7 |
| 20260904193520 | 94 | 0.0 | 1.0 | 0.00 | 0.00 | 0.00 | 62 | 1017.8 | |
| 20260904193017 | 95 | 0.0 | 0.0 | 0.00 | 0.00 | 0.00 | 61 | 1017.8 | |
| 20260904192516 | 95 | 0.0 | 1.0 | 0.00 | 0.00 | 0.00 | 61 | 1017.9 | |
| 20260904192019 | 95 | 0.0 | 0.0 | 0.00 | 0.00 | 0.00 | 58 | 1018.0 | |
| 20260904191517 | 97 | 0.0 | 1.0 | 0.00 | 0.00 | 0.00 | 58 | 1018.1 | |
| 20260904191017 | 98 | 203 | 1.0 | 1.0 | 0.00 | 0.00 | 0.00 | 59 | 1018.3 |
| 20260904190519 | 99 | 225 | 1.0 | 1.0 | 0.00 | 0.00 | 0.00 | 54 | 1018.3 |
| 20260904190021 | 99 | 0.0 | 1.0 | 0.00 | 0.00 | 0.00 | 58 | 1018.4 | |
| 20260904185517 | 98 | 225 | 1.0 | 2.0 | 0.00 | 0.00 | 0.00 | 56 | 1018.4 |
| 20260904185021 | 97 | 180 | 1.0 | 2.0 | 0.00 | 0.00 | 0.00 | 60 | 1018.4 |
| 20260904184518 | 96 | 338 | 1.0 | 3.0 | 0.00 | 0.00 | 0.00 | 57 | 1018.5 |
| 20260904184017 | 96 | 0.0 | 0.0 | 0.00 | 0.00 | 0.00 | 60 | 1018.6 | |
| 20260904183519 | 95 | 68 | 1.0 | 2.0 | 0.00 | 0.00 | 0.00 | 59 | 1018.7 |
| 20260904183019 | 95 | 203 | 1.0 | 1.0 | 0.00 | 0.00 | 0.00 | 60 | 1018.7 |
| 20260904182518 | 93 | 0.0 | 0.0 | 0.00 | 0.00 | 0.00 | 66 | 1018.8 | |
| 20260904182020 | 92 | 0.0 | 1.0 | 0.00 | 0.00 | 0.00 | 65 | 1018.6 | |
| 20260904181520 | 92 | 0.0 | 0.0 | 0.00 | 0.00 | 0.00 | 64 | 1018.8 | |
| 20260904181021 | 92 | 90 | 2.0 | 2.0 | 0.00 | 0.00 | 0.00 | 66 | 1018.8 |
| 20260904180519 | 93 | 0.0 | 1.0 | 0.00 | 0.00 | 0.00 | 62 | 1019.0 | |
| 20260904180021 | 94 | 0.0 | 0.0 | 0.00 | 0.00 | 0.00 | 61 | 1018.9 | |
| 20260904175520 | 95 | 0.0 | 0.0 | 0.00 | 0.00 | 0.00 | 61 | 1019.1 |